Dewpoint
2 2 2 1 2 1 0 -1 -1 -0 1 1 1 -0 -1 -2 -2 -1 -0 1 3 5 6 6 5 6 6 7 7 6 5 4 3 3 3 2 2 2 1 -0 -0 -0 -0
1 2 2 2 1 2 1 1 0 -0 -1 -0 -1 -1 -2 -2 -1 1 1 3 4 4 4 5 5 5 5 5 5 4 4 3 2 2 1 1 0 -0 0 -0 -1 -2 -11
1 1 2 2 2 1 1 0 0 0 0 0 0 -0 0 1 2 3 4 4 4 4 4 4 4 4 3 2 2 1 0 -0 0 0 0 -0 -0 -1 -4 -12 -17 -16 -16
1 2 2 2 2 2 2 2 2 2 2 2 2 3 3 3 3 3 3 3 3 3 4 3 3 2 1 -1 -1 -0 -0 -0 0 -0 -1 -4 -9 -15 -17 -17 -16 -14 -13
1 2 2 2 2 2 3 3 2 3 3 3 3 3 3 3 3 2 2 2 2 2 1 1 -0 -1 -1 -1 -1 -1 -1 -1 -2 -5 -17 -21 -19 -15 -13 -12 -14 -13 -18
1 1 1 2 3 3 3 3 3 2 2 1 1 1 1 -0 -1 -1 -1 -1 -1 -2 -2 -1 -1 -1 -1 -1 -1 -1 -1 -13 -19 -20 -20 -22 -16 -13 -12 -13 -16 -19 -14
1 1 1 1 2 2 2 1 1 0 -0 -1 -1 -1 -1 -1 -1 -1 -1 -1 -1 -1 -1 -1 -1 -2 -2 -4 -13 -21 -22 -23 -23 -20 -19 -17 -16 -16 -17 -20 -17 -13 -13
0 1 1 1 1 1 0 -0 -1 -1 -1 -1 -1 -1 -2 -2 -2 -2 -2 -1 -1 -2 -4 -7 -13 -20 -23 -23 -20 -20 -17 -14 -15 -14 -16 -18 -19 -20 -18 -14 -13 -12 -12
0 0 0 1 0 -0 -1 -1 -1 -2 -2 -2 -2 -2 -2 -4 -6 -12 -19 -22 -22 -23 -23 -23 -23 -22 -19 -21 -21 -18 -16 -16 -15 -14 -18 -17 -15 -13 -12 -12 -12 -12 -12
0 0 -0 -1 -1 -1 -2 -2 -2 -2 -2 -5 -14 -19 -21 -23 -24 -24 -24 -24 -25 -25 -25 -23 -21 -22 -23 -23 -24 -23 -22 -20 -19 -21 -14 -12 -12 -12 -12 -11 -11 -11 -10
0 -0 -1 -1 -2 -2 -2 -2 -2 -7 -16 -18 -19 -21 -23 -24 -24 -26 -28 -27 -27 -26 -24 -23 -22 -23 -23 -24 -25 -24 -23 -21 -20 -14 -12 -12 -12 -11 -11 -10 -11 -11 -10
-0 -2 -2 -1 -2 -2 -3 -8 -14 -17 -19 -21 -23 -24 -25 -26 -27 -27 -27 -26 -25 -24 -23 -22 -22 -22 -23 -24 -23 -22 -19 -15 -12 -12 -12 -11 -11 -11 -11 -11 -11 -10 -10
-1 -2 -2 -2 -2 -6 -11 -16 -18 -19 -21 -23 -24 -25 -26 -26 -25 -23 -24 -24 -24 -24 -22 -23 -23 -23 -23 -22 -20 -15 -12 -12 -12 -11 -11 -11 -11 -11 -11 -11 -11 -10 -10
-2 -2 -2 -2 -9 -14 -16 -18 -20 -21 -22 -24 -25 -27 -26 -26 -24 -24 -24 -24 -24 -23 -23 -23 -23 -23 -22 -18 -14 -12 -12 -11 -11 -11 -11 -11 -11 -10 -10 -10 -10 -10 -10
-1 -1 -2 -12 -15 -15 -17 -19 -21 -22 -23 -25 -28 -28 -28 -27 -26 -26 -25 -24 -24 -23 -24 -23 -23 -22 -21 -17 -13 -12 -12 -11 -11 -10 -10 -10 -10 -10 -10 -10 -10 -10 -9
-2 -2 -10 -15 -15 -15 -18 -20 -22 -23 -25 -30 -31 -29 -28 -28 -26 -26 -26 -25 -24 -24 -24 -23 -23 -23 -22 -15 -12 -12 -11 -11 -10 -10 -9 -9 -9 -9 -9 -9 -9 -9 -9
-2 -6 -15 -16 -15 -16 -19 -21 -22 -23 -26 -30 -30 -28 -28 -28 -27 -26 -25 -25 -25 -25 -23 -23 -24 -23 -20 -14 -12 -12 -11 -10 -9 -9 -9 -9 -8 -8 -8 -9 -9 -9 -9
-2 -10 -16 -16 -15 -16 -18 -20 -21 -22 -26 -30 -30 -29 -27 -27 -26 -26 -25 -25 -25 -25 -25 -24 -24 -22 -19 -13 -12 -11 -10 -10 -9 -9 -9 -8 -9 -9 -9 -9 -9 -9 -9
-5 -14 -17 -17 -15 -15 -18 -20 -22 -23 -25 -31 -31 -29 -27 -27 -26 -26 -25 -24 -24 -25 -25 -25 -24 -21 -17 -13 -12 -11 -10 -10 -9 -9 -9 -9 -9 -9 -9 -9 -9 -9 -9
-6 -15 -17 -17 -17 -15 -16 -20 -22 -23 -23 -29 -31 -30 -28 -28 -26 -25 -25 -24 -24 -23 -22 -22 -21 -20 -18 -14 -12 -12 -11 -10 -10 -9 -9 -9 -9 -9 -9 -9 -9 -9 -9
-5 -13 -17 -17 -17 -17 -15 -18 -21 -23 -23 -27 -31 -30 -29 -28 -26 -25 -25 -24 -24 -23 -23 -22 -20 -20 -18 -17 -15 -13 -12 -11 -11 -10 -9 -9 -9 -9 -10 -9 -9 -9 -9
-3 -9 -14 -17 -18 -18 -16 -16 -20 -22 -23 -24 -29 -30 -30 -29 -27 -25 -24 -24 -24 -24 -23 -22 -21 -20 -20 -19 -17 -16 -14 -12 -11 -10 -9 -9 -9 -10 -9 -9 -9 -9 -9
-2 -5 -10 -13 -16 -18 -18 -15 -17 -21 -22 -22 -26 -29 -30 -29 -28 -26 -25 -24 -23 -23 -22 -22 -21 -21 -20 -19 -19 -18 -16 -13 -12 -10 -9 -9 -10 -10 -9 -9 -9 -10 -10
-0 -2 -6 -9 -11 -14 -18 -17 -16 -18 -21 -22 -23 -27 -30 -30 -28 -26 -25 -24 -23 -23 -22 -21 -21 -21 -20 -20 -20 -19 -17 -14 -11 -10 -9 -9 -9 -9 -9 -9 -9 -9 -9
-0 -1 -1 -4 -8 -10 -13 -17 -16 -16 -20 -22 -22 -24 -29 -30 -29 -26 -24 -24 -23 -23 -22 -21 -20 -19 -19 -19 -19 -18 -16 -13 -10 -9 -9 -10 -10 -10 -9 -10 -10 -9 -9
-1 -1 -1 -1 -2 -5 -9 -15 -16 -16 -18 -21 -22 -22 -27 -30 -29 -26 -24 -24 -23 -22 -20 -17 -15 -13 -13 -14 -15 -15 -13 -11 -10 -9 -9 -9 -9 -9 -9 -9 -9 -9 -9
Wind_Speed
7 8 8 10 11 12 14 15 15 16 17 18 19 19 19 19 18 17 17 17 17 15 15 18 21 24 25 25 24 23 21 19 20 20 19 18 17 15 17 15 15 15 18
7 8 8 9 9 9 10 11 12 13 14 14 14 14 14 15 15 15 15 14 14 14 14 16 18 20 20 18 18 16 13 12 12 12 13 13 11 11 10 11 14 16 16
6 7 8 9 8 7 7 7 7 6 8 8 9 11 11 11 12 12 9 8 10 12 13 14 15 14 12 9 7 6 6 7 7 8 8 8 7 9 10 9 11 12 13
6 6 6 6 7 8 7 8 8 8 8 7 7 6 6 6 8 6 5 5 7 7 7 6 6 5 5 4 3 6 6 6 6 4 8 9 8 9 10 9 9 10 12
4 5 5 5 5 5 4 4 4 4 3 3 2 3 2 1 1 2 2 2 2 1 1 2 2 3 4 4 5 5 6 5 4 5 10 8 8 7 8 9 10 12 13
5 4 4 4 5 5 5 4 4 3 3 3 2 5 7 8 11 10 9 7 7 5 3 1 1 3 5 7 7 7 4 3 5 7 9 8 8 7 8 10 12 13 11
6 5 4 4 5 5 5 5 7 7 7 9 12 12 12 14 12 12 11 8 6 5 3 1 2 3 5 6 3 2 3 6 7 7 8 9 9 10 10 10 9 10 12
7 5 4 3 5 7 8 10 12 12 13 14 14 12 12 14 12 11 9 6 4 2 1 1 2 3 4 3 5 6 7 6 6 7 8 9 9 9 8 9 10 11 11
7 5 5 7 8 11 13 14 15 15 14 14 13 11 10 11 9 7 6 4 3 2 3 4 4 5 5 7 6 7 7 7 8 9 7 5 6 6 8 9 9 11 13
8 7 7 9 11 14 15 16 17 14 12 11 11 10 9 7 5 4 3 4 5 5 6 6 6 7 9 9 8 8 8 7 7 7 6 6 6 7 8 9 10 11 14
9 9 11 13 16 17 17 16 13 11 10 9 8 7 5 5 4 5 6 7 7 7 8 8 8 8 8 9 9 6 6 6 6 5 5 6 7 8 9 11 11 13 15
12 13 15 17 18 16 14 14 12 10 7 6 4 3 4 5 6 7 7 7 7 8 8 9 9 9 8 8 6 4 4 4 4 5 7 7 8 9 11 11 11 13 16
16 17 18 17 16 14 13 12 10 8 5 3 1 3 4 5 6 7 8 9 8 8 7 8 7 7 6 5 3 3 4 4 6 7 8 9 10 11 11 13 13 15 16
18 19 18 17 16 14 13 10 8 5 3 1 2 3 4 5 7 10 11 11 10 10 9 8 7 6 4 4 3 4 5 6 8 9 10 11 12 12 13 14 16 16 19
20 19 18 16 14 13 11 8 7 5 3 3 3 4 6 7 8 10 10 10 9 8 8 7 6 6 5 5 5 6 7 9 10 12 13 12 13 14 15 15 16 17 20
21 20 18 16 14 13 11 9 7 6 5 4 4 5 7 7 8 9 10 9 8 8 8 7 7 7 6 6 7 8 10 11 11 12 12 13 14 15 15 14 15 16 19
19 19 18 17 15 14 12 10 8 8 6 5 4 6 7 7 8 9 9 8 8 8 8 8 8 7 7 8 9 10 10 10 11 12 13 14 15 14 14 15 16 19 21
19 18 18 16 15 14 13 11 10 8 7 6 6 7 7 8 9 9 9 9 9 9 9 9 8 8 9 9 11 11 11 11 12 13 14 14 15 16 16 17 18 20 22
21 21 19 18 16 15 13 12 11 9 8 8 7 8 8 9 9 9 10 10 9 9 10 9 9 9 10 12 12 13 13 12 13 14 15 14 14 16 18 20 20 20 21
22 21 20 19 18 17 16 14 12 11 10 10 9 9 9 10 10 10 10 10 10 10 10 10 10 11 12 13 15 16 15 14 14 15 15 16 16 17 20 21 20 22 23
24 24 22 22 21 18 17 15 14 13 12 11 10 11 11 11 11 12 12 12 12 12 12 13 13 14 14 15 17 18 18 17 16 17 17 18 18 20 20 21 21 23 25
25 26 25 24 21 20 18 16 16 15 13 12 12 12 11 12 12 13 13 13 14 14 15 15 15 15 16 17 18 20 20 19 18 18 19 20 19 20 22 22 23 25 26
28 28 27 25 24 21 20 18 17 15 14 14 13 13 12 13 13 14 15 14 15 15 16 17 18 17 16 18 19 20 21 20 19 20 21 22 21 22 23 25 25 27 26
31 30 29 27 25 24 22 19 17 16 15 15 14 14 14 14 14 15 16 16 17 17 17 18 19 19 18 17 18 19 21 20 20 20 20 23 24 23 25 26 27 28 29
35 35 34 30 27 25 22 20 18 16 16 15 15 15 15 15 15 16 16 17 18 18 17 17 17 18 17 18 18 18 19 20 21 20 21 22 24 26 28 29 30 31 31
38 37 37 34 31 26 23 20 16 16 17 16 16 16 15 16 16 17 17 18 19 18 17 17 17 18 19 19 18 18 19 20 20 19 20 23 26 27 27 30 31 32 33
Wind_Direction
262 263 262 256 254 253 249 246 244 245 249 255 258 261 264 266 269 274 277 279 276 270 270 272 272 272 273 272 269 270 273 271 263 263 260 252 248 253 255 261 271 276 273
262 265 263 261 263 260 255 249 246 248 250 254 260 266 269 271 271 274 281 287 289 284 276 272 270 268 267 266 269 268 264 251 247 251 250 247 247 250 258 264 265 270 273
263 263 257 247 245 247 249 246 246 245 250 258 266 271 281 283 285 286 296 301 293 289 279 273 267 263 263 259 250 240 224 225 236 254 264 239 244 251 253 252 261 269 273
255 249 243 239 239 242 246 251 253 255 264 271 272 276 277 276 292 276 267 262 291 294 290 270 259 252 247 239 241 240 227 219 215 214 239 235 237 241 251 263 276 284 293
253 246 239 237 231 227 223 237 244 236 240 257 294 294 277 323 325 52 20 93 52 31 147 179 207 226 227 235 236 244 239 237 239 204 234 245 249 257 266 273 286 294 298
246 243 231 220 211 199 196 187 158 131 109 115 131 118 111 104 87 90 81 75 82 76 65 43 320 268 262 262 257 259 296 305 253 255 260 260 255 254 268 281 287 296 316
245 240 227 218 198 170 156 136 126 127 121 119 110 108 105 99 96 90 82 73 71 69 55 19 305 274 263 265 293 297 271 256 252 262 264 261 264 270 276 281 285 294 300
236 237 225 197 174 152 143 136 129 121 117 113 106 99 98 94 88 83 80 70 58 48 12 288 273 283 287 274 262 256 254 271 270 269 270 263 265 270 274 280 288 295 308
231 223 197 173 160 149 142 135 125 120 116 112 106 100 93 94 90 85 72 64 44 15 345 322 310 300 288 287 292 282 275 271 271 269 279 268 258 256 267 276 289 298 307
217 207 173 154 150 145 138 131 124 122 121 118 116 108 101 88 80 53 13 354 340 324 317 318 311 300 301 302 302 292 284 280 271 262 263 257 254 256 266 280 286 297 312
198 180 160 148 143 142 138 134 131 131 128 124 114 105 89 65 39 5 356 347 337 328 321 314 308 305 301 298 295 290 277 275 274 271 262 264 271 274 275 279 284 297 304
184 167 156 149 147 144 141 138 136 137 138 124 103 74 43 21 4 354 349 343 333 326 322 319 318 317 314 307 300 282 277 280 277 271 272 275 274 276 282 282 282 287 293
175 169 159 154 153 153 152 150 153 154 152 137 95 18 3 355 346 345 347 347 343 340 332 323 316 307 302 295 278 278 278 280 278 278 280 285 288 290 296 294 286 285 292
173 165 164 166 163 164 165 172 177 175 179 230 334 326 325 335 340 343 341 339 333 328 325 320 312 303 295 273 257 262 272 283 289 289 290 294 298 301 304 300 294 293 296
176 173 175 176 180 181 182 186 191 203 223 253 287 309 325 334 336 333 327 324 324 322 317 312 299 287 275 262 265 278 285 289 292 298 301 303 306 307 308 310 307 302 300
183 184 186 189 193 197 199 204 208 219 237 260 293 316 324 327 329 327 324 324 322 315 313 307 297 290 277 272 279 286 292 295 297 302 305 307 310 313 314 320 324 319 313
193 192 195 198 204 208 211 214 222 229 244 269 287 313 322 326 329 333 331 326 321 313 304 301 295 286 275 279 286 293 297 298 302 305 309 312 312 317 316 316 318 317 317
200 203 207 210 212 215 216 220 229 240 252 268 288 307 318 326 330 330 330 330 329 320 309 300 293 282 278 283 291 297 299 302 305 308 311 312 314 316 315 316 316 315 317
207 209 212 215 219 224 227 231 238 247 260 267 278 298 314 320 323 326 326 326 324 317 310 303 291 282 282 287 293 295 297 300 306 313 316 314 313 313 314 316 315 315 317
214 215 219 221 223 228 231 236 242 251 261 269 280 292 301 311 320 321 319 315 315 313 307 299 288 286 287 287 287 290 292 295 298 304 310 311 312 311 314 312 313 314 317
219 220 223 224 228 232 236 239 244 251 260 269 275 286 297 309 317 319 316 313 310 308 302 296 291 288 286 284 283 286 289 293 297 300 304 307 308 310 314 310 310 312 313
224 225 227 230 232 234 238 240 244 251 258 268 273 280 293 303 308 311 310 308 306 304 300 297 295 290 285 283 282 283 287 289 294 296 298 303 304 308 312 310 308 309 310
227 226 228 231 234 236 237 240 245 252 259 268 274 280 288 295 302 308 308 306 303 301 297 297 297 294 288 283 282 283 284 288 290 293 298 302 302 307 310 308 308 310 314
228 227 230 232 235 237 240 242 247 252 259 267 275 281 285 293 301 306 307 307 305 302 300 299 298 296 293 287 282 281 281 282 283 290 293 296 298 303 306 307 309 312 316
233 228 225 226 232 237 239 242 246 253 260 267 274 280 285 290 297 301 304 304 302 302 301 298 298 297 297 295 291 284 279 278 282 287 292 295 299 307 308 308 310 312 312
236 235 232 227 222 227 237 240 250 258 261 267 273 279 283 287 294 300 303 303 302 301 299 299 299 299 298 297 293 288 284 282 285 288 291 292 291 293 301 304 306 308 310
Height
1483 1483 1483 1483 1484 1484 1485 1485 1486 1487 1487 1488 1488 1489 1490 1490 1490 1490 1489 1489 1489 1489 1489 1490 1491 1490 1490 1489 1489 1489 1490 1490 1490 1490 1491 1492 1493 1493 1497 1498 1498 1499 1499
1481 1481 1481 1481 1481 1481 1481 1482 1482 1483 1483 1484 1483 1484 1485 1485 1484 1485 1485 1484 1486 1486 1485 1485 1485 1485 1485 1484 1485 1484 1485 1487 1487 1488 1488 1490 1491 1492 1493 1492 1494 1495 1495
1479 1479 1479 1479 1479 1479 1479 1479 1480 1480 1481 1480 1480 1481 1481 1481 1481 1481 1481 1481 1482 1482 1481 1480 1481 1481 1482 1481 1482 1483 1483 1484 1484 1487 1488 1487 1487 1489 1489 1489 1490 1492 1491
1478 1478 1478 1477 1477 1477 1477 1479 1478 1479 1478 1478 1479 1478 1478 1478 1479 1479 1478 1479 1479 1479 1478 1478 1478 1479 1480 1481 1482 1483 1483 1482 1482 1483 1483 1487 1485 1487 1487 1486 1488 1487 1486
1477 1476 1475 1475 1475 1476 1476 1476 1476 1476 1477 1477 1477 1477 1477 1477 1478 1477 1476 1477 1477 1477 1477 1478 1478 1479 1479 1481 1481 1481 1482 1482 1482 1481 1485 1483 1484 1484 1483 1483 1483 1483 1483
1475 1474 1475 1474 1474 1474 1475 1475 1475 1475 1475 1476 1476 1477 1478 1477 1477 1476 1476 1477 1477 1478 1479 1479 1479 1480 1480 1480 1480 1480 1480 1480 1480 1480 1482 1481 1482 1481 1480 1480 1480 1480 1479
1474 1473 1473 1473 1474 1473 1474 1474 1474 1475 1476 1477 1478 1478 1479 1478 1478 1477 1477 1478 1478 1479 1480 1480 1480 1480 1480 1480 1479 1479 1479 1479 1478 1478 1479 1479 1478 1477 1478 1478 1478 1477 1476
1473 1472 1472 1472 1473 1474 1474 1474 1475 1476 1478 1479 1479 1480 1480 1479 1479 1479 1478 1479 1479 1480 1480 1480 1480 1479 1479 1478 1478 1478 1478 1477 1476 1476 1476 1476 1475 1475 1475 1475 1475 1474 1472
1471 1472 1471 1472 1473 1474 1474 1476 1475 1478 1481 1481 1482 1482 1482 1481 1481 1481 1480 1480 1480 1480 1479 1479 1479 1478 1478 1477 1476 1475 1475 1474 1474 1473 1473 1473 1473 1473 1473 1473 1471 1470 1468
1470 1471 1471 1472 1473 1474 1476 1477 1478 1481 1483 1483 1484 1484 1483 1482 1482 1481 1480 1480 1479 1478 1478 1477 1477 1476 1475 1474 1474 1473 1472 1472 1472 1471 1471 1471 1471 1470 1470 1469 1468 1466 1464
1469 1470 1471 1472 1473 1475 1477 1479 1481 1483 1484 1485 1485 1484 1483 1482 1481 1480 1479 1478 1477 1476 1475 1475 1474 1474 1473 1472 1471 1470 1469 1469 1469 1468 1469 1469 1468 1468 1467 1466 1464 1462 1460
1468 1469 1471 1473 1475 1476 1479 1481 1482 1484 1485 1485 1484 1484 1483 1482 1481 1480 1478 1477 1476 1475 1473 1472 1471 1470 1470 1469 1468 1468 1467 1467 1467 1467 1466 1466 1466 1465 1464 1462 1460 1458 1457
1466 1469 1471 1473 1476 1478 1480 1482 1483 1484 1485 1484 1484 1483 1482 1481 1480 1479 1478 1476 1475 1473 1472 1471 1470 1469 1468 1467 1466 1466 1466 1466 1465 1464 1464 1463 1462 1460 1458 1457 1455 1454 1452
1466 1469 1471 1474 1476 1478 1480 1482 1483 1484 1484 1483 1483 1483 1482 1480 1479 1477 1476 1474 1473 1472 1470 1469 1468 1467 1466 1465 1465 1465 1464 1463 1462 1461 1460 1459 1457 1455 1454 1452 1450 1449 1446
1466 1469 1472 1474 1476 1478 1480 1482 1483 1483 1483 1483 1482 1482 1480 1479 1477 1476 1475 1473 1471 1470 1468 1467 1466 1465 1464 1464 1463 1463 1462 1461 1460 1458 1456 1455 1453 1452 1450 1448 1446 1444 1441
1465 1468 1470 1473 1475 1478 1479 1480 1481 1482 1482 1481 1481 1480 1478 1477 1476 1474 1473 1471 1469 1467 1466 1465 1464 1463 1462 1461 1461 1460 1459 1458 1457 1455 1453 1451 1449 1448 1445 1444 1441 1439 1436
1464 1467 1469 1472 1474 1476 1477 1479 1479 1480 1480 1479 1478 1478 1477 1476 1474 1472 1470 1468 1467 1465 1464 1462 1461 1460 1459 1459 1458 1457 1456 1455 1454 1452 1450 1448 1446 1444 1441 1439 1437 1434 1431
1462 1465 1468 1470 1472 1474 1475 1476 1477 1478 1477 1477 1476 1476 1474 1473 1471 1470 1468 1466 1464 1462 1460 1459 1458 1457 1456 1456 1455 1454 1453 1451 1450 1448 1446 1444 1442 1440 1437 1435 1433 1429 1426
1460 1462 1465 1467 1469 1471 1472 1473 1474 1474 1474 1474 1473 1472 1471 1470 1468 1467 1465 1463 1461 1459 1457 1456 1455 1454 1454 1453 1452 1450 1449 1447 1446 1444 1442 1440 1438 1435 1433 1430 1427 1425 1422
1457 1460 1462 1464 1465 1467 1468 1469 1470 1470 1471 1471 1470 1470 1469 1467 1466 1464 1462 1460 1458 1457 1455 1453 1452 1451 1450 1448 1447 1446 1444 1443 1441 1440 1438 1436 1434 1431 1428 1425 1423 1419 1417
1452 1455 1457 1460 1461 1463 1464 1465 1466 1467 1467 1467 1466 1466 1465 1463 1462 1460 1458 1456 1454 1453 1451 1449 1448 1447 1445 1444 1442 1440 1439 1437 1436 1434 1432 1430 1428 1426 1423 1420 1417 1415 1411
1447 1450 1452 1454 1457 1458 1460 1461 1462 1462 1463 1462 1462 1461 1460 1459 1457 1456 1454 1452 1450 1448 1447 1445 1443 1442 1440 1438 1436 1434 1432 1431 1430 1428 1426 1424 1422 1420 1417 1414 1411 1408 1405
1441 1444 1446 1449 1451 1453 1454 1456 1457 1458 1458 1458 1457 1457 1456 1455 1453 1451 1450 1448 1446 1444 1442 1439 1437 1436 1434 1432 1430 1428 1426 1425 1424 1422 1420 1418 1415 1413 1411 1407 1404 1401 1398
1433 1436 1439 1442 1445 1447 1449 1450 1452 1452 1453 1453 1453 1452 1451 1450 1448 1447 1445 1442 1440 1438 1436 1434 1431 1429 1427 1426 1424 1422 1420 1419 1417 1415 1414 1411 1409 1407 1404 1401 1398 1394 1391
1425 1427 1430 1434 1437 1440 1443 1444 1445 1447 1447 1448 1448 1447 1446 1445 1443 1441 1439 1437 1435 1433 1431 1428 1426 1423 1421 1419 1417 1416 1414 1412 1410 1409 1406 1404 1401 1398 1396 1393 1390 1387 1384
1416 1418 1422 1425 1428 1432 1435 1437 1439 1441 1442 1442 1442 1442 1441 1440 1438 1436 1433 1431 1429 1427 1424 1422 1420 1417 1415 1413 1411 1409 1407 1406 1404 1403 1401 1398 1395 1392 1390 1387 1383 1380 1376